Location: Volkssternwarte_EN
(51.3230°N, 7.4010°E)
Time: 07:00:18
(UTC+01:00)

BlueWalker 3 - Pass Details

Date: 05 December 2022
Orbit: 499 x 517 km, 53.2° (Epoch: 28 January)

Event Time Altitude Azimuth Distance (km) Brightness Sun altitude
Rises 19:16:08 0° 289° (WNW) 2,629 6.6 -25.8°
Reaches altitude 10° 19:18:22 10° 287° (WNW) 1,737 5.5 -26.1°
Enters shadow 19:21:09 42° 269° (W) 734 3.1 -26.6°
